Temperature
9 8 7 6 6 5 5 5 4 4 4 4 4 4 3 3 3 2 2 2 1 1 1 1 0 0 0 0 0 0 0 0 0 1 1 2 2 2 3 2 2 3 3
7 7 6 5 5 5 4 4 4 4 4 4 4 3 3 3 2 2 2 1 1 0 0 -0 -0 -0 -0 -0 -0 -0 0 0 1 1 1 2 2 2 2 2 2 3 3
6 6 5 5 4 4 4 4 4 4 4 3 3 3 3 3 2 2 1 1 0 -0 -1 -1 -1 -1 -1 -1 -1 -1 -0 0 1 0 1 1 2 2 2 2 2 2 3
6 5 5 4 4 4 4 4 4 4 3 3 3 3 3 2 2 1 1 0 -0 -1 -1 -1 -2 -2 -1 -1 -1 -1 -0 -0 0 0 0 1 1 2 2 2 2 2 2
5 5 4 4 4 4 4 4 4 4 3 3 3 3 3 2 2 1 0 -0 -1 -1 -1 -2 -2 -2 -2 -1 -1 -1 -0 -0 -0 -0 0 0 1 1 2 2 2 2 2
5 4 4 4 4 4 4 4 4 4 4 3 3 3 2 2 1 0 -0 -1 -1 -2 -2 -2 -2 -1 -1 -1 -1 -0 -0 -0 -0 0 0 1 1 1 2 2 2 2 2
4 4 4 4 4 4 4 4 4 4 4 3 3 2 2 1 0 -0 -1 -2 -2 -2 -2 -2 -1 -1 -1 -1 -0 -0 -0 0 0 1 1 1 1 2 2 2 2 2 2
4 4 4 4 4 4 4 4 4 4 4 3 2 2 1 0 -1 -1 -2 -2 -2 -2 -2 -1 -1 -1 -1 -0 -0 -0 0 1 1 1 2 2 2 2 2 2 2 2 2
4 4 4 5 5 5 5 5 4 4 3 2 1 0 -0 -1 -2 -2 -2 -2 -2 -2 -1 -1 -1 -1 -0 -0 -0 -0 0 1 1 2 2 2 2 2 2 2 2 2 1
4 5 5 5 5 5 5 4 3 2 1 0 -1 -1 -2 -2 -3 -3 -3 -3 -2 -2 -1 -1 -1 -1 -0 -0 0 0 1 1 1 2 2 2 2 2 2 1 1 1 1
5 5 5 5 5 4 3 3 2 1 -0 -1 -2 -2 -3 -3 -3 -3 -3 -3 -2 -2 -1 -1 -1 -1 -0 0 1 1 1 1 1 1 2 1 1 1 1 1 0 0 -0
5 5 4 4 4 3 2 1 0 -0 -1 -2 -2 -3 -3 -3 -3 -3 -2 -2 -2 -1 -1 -1 -1 -0 0 1 1 1 1 1 1 1 1 1 1 0 -0 -0 -1 -1 -0
4 4 4 3 2 1 1 -0 -1 -1 -2 -3 -3 -3 -3 -3 -3 -2 -2 -1 -1 -1 -1 -1 -0 0 1 1 1 1 2 1 1 1 0 -0 -1 -1 -1 -1 -1 -1 -1
4 3 3 2 1 0 -0 -1 -1 -2 -3 -3 -3 -3 -3 -3 -3 -2 -2 -1 -1 -1 -1 -0 0 0 1 1 1 1 1 1 1 0 -1 -1 -1 -1 -1 -1 -1 -1 -1
3 3 2 1 0 -1 -1 -2 -2 -3 -3 -3 -3 -3 -3 -3 -3 -2 -2 -1 -1 -1 -0 -0 0 0 1 1 1 1 1 1 0 -0 -1 -1 -1 -1 -1 -1 -1 -1 -1
3 2 1 0 -0 -1 -1 -2 -2 -3 -3 -3 -3 -3 -3 -3 -2 -2 -1 -1 -1 -1 -0 -0 -0 0 1 1 1 1 1 0 -0 -1 -1 -1 -1 -1 -1 -1 -1 -1 -1
2 1 0 -0 -1 -1 -2 -2 -2 -2 -2 -3 -3 -3 -2 -2 -2 -1 -1 -1 -1 -1 -0 -0 -0 0 0 1 1 1 0 0 -0 -1 -1 -1 -1 -1 -1 -1 -1 -1 -1
2 1 -0 -1 -1 -2 -2 -2 -2 -3 -2 -2 -2 -2 -2 -2 -2 -1 -1 -1 -1 -1 -0 -0 -0 0 0 0 1 0 0 -0 -0 -1 -1 -1 -1 -1 -1 -1 -1 -1 -1
1 0 -0 -1 -1 -2 -2 -2 -2 -3 -3 -3 -2 -2 -2 -2 -2 -2 -1 -1 -1 -1 -1 -0 -0 -0 0 0 0 0 0 -0 -0 -1 -1 -1 -1 -1 -1 -0 -0 -0 -0
1 0 -0 -1 -1 -2 -2 -2 -3 -3 -3 -3 -3 -2 -2 -2 -2 -2 -1 -1 -1 -1 -1 -1 -0 -0 -0 0 0 0 0 -0 -0 -1 -1 -1 -1 -1 -0 -0 -0 -0 -0
1 0 -0 -1 -1 -2 -2 -2 -3 -3 -3 -3 -3 -2 -2 -2 -2 -2 -2 -1 -1 -1 -1 -1 -1 -0 -0 -0 0 0 0 -0 -0 -0 -1 -1 -1 -0 -0 0 0 0 0
1 0 -0 -1 -1 -2 -2 -2 -3 -3 -3 -3 -3 -2 -2 -2 -2 -2 -2 -1 -1 -1 -1 -1 -1 -1 -0 -0 -0 -0 -0 -0 -0 -0 -0 -0 -0 -0 0 0 0 0 0
1 0 -0 -0 -1 -1 -2 -2 -2 -3 -3 -3 -3 -3 -2 -2 -2 -2 -2 -1 -1 -1 -1 -1 -1 -1 -1 -1 -0 -0 -0 -0 -0 -0 -0 -0 -0 0 0 0 0 0 0
1 1 0 -0 -1 -1 -1 -2 -2 -2 -3 -3 -3 -3 -3 -3 -2 -2 -2 -2 -1 -1 -1 -1 -1 -0 -0 -0 -0 -0 -0 -0 -0 -0 -0 -0 -0 0 0 0 0 0 0
1 1 0 0 -0 -0 -1 -1 -1 -2 -2 -3 -3 -3 -3 -2 -2 -2 -2 -1 -1 -1 -1 -1 -0 -0 -0 -0 -0 -0 -0 -0 -0 -0 -0 0 0 0 0 0 0 0 0
1 1 1 0 -0 -0 -1 -1 -1 -1 -2 -2 -2 -3 -3 -3 -2 -2 -2 -2 -1 -1 -1 -0 -0 -0 -0 -0 -0 -0 -0 -0 -0 -0 -0 0 0 0 0 0 0 0 0
Wind_Speed
2 2 1 0 1 1 2 3 4 4 4 4 4 4 4 4 3 3 3 4 6 8 9 10 13 12 10 9 9 9 10 10 13 12 10 11 12 13 12 13 13 12 12
1 1 1 1 2 2 3 4 4 4 5 5 5 5 5 5 5 5 6 6 7 10 11 13 14 12 13 11 10 11 10 10 11 13 11 10 12 13 13 12 10 8 7
1 1 2 2 2 3 4 4 4 5 5 5 5 6 6 6 6 7 7 8 9 10 12 14 15 15 15 12 12 11 10 10 9 10 12 11 10 10 10 10 8 5 4
2 2 2 3 3 4 5 5 5 5 6 6 6 7 7 7 7 7 7 8 10 11 13 14 15 15 15 15 12 12 10 10 10 11 12 12 11 10 8 8 6 3 2
3 3 4 4 4 4 5 6 6 6 6 6 7 7 6 6 7 7 7 9 11 14 15 16 16 18 20 16 12 10 11 10 11 11 12 12 11 9 7 5 5 2 2
3 4 5 5 5 5 6 6 6 7 6 6 6 6 6 5 7 10 10 10 12 15 16 16 16 17 17 18 20 19 17 15 13 13 12 13 13 10 7 5 3 3 2
4 5 5 5 6 7 6 6 6 6 5 5 5 4 4 6 9 11 15 13 13 14 15 14 13 14 17 14 16 19 19 22 21 17 15 14 13 8 6 5 3 2 1
4 5 6 6 6 6 6 6 5 4 3 3 4 4 4 7 11 13 17 13 13 14 14 14 14 15 14 14 14 15 15 15 15 12 11 10 8 5 3 3 4 4 2
4 5 6 5 6 6 6 5 4 4 5 5 5 6 7 9 13 15 16 12 12 14 14 14 14 14 16 18 15 14 14 11 8 5 3 3 4 6 6 6 4 3 1
5 5 5 4 4 5 6 6 5 6 6 6 6 7 7 9 13 16 17 10 12 12 13 13 15 15 17 19 14 12 11 7 4 4 8 11 11 12 11 6 3 3 2
3 4 6 7 7 7 7 6 6 6 6 7 7 8 8 9 12 15 17 11 10 12 11 11 11 17 20 20 15 8 6 3 2 5 8 10 9 9 8 7 6 4 3
6 8 8 8 7 7 7 6 6 6 7 8 8 9 8 9 11 14 18 18 16 12 11 10 11 18 20 17 9 3 0 3 5 7 9 9 9 8 8 8 9 9 9
8 8 7 8 7 6 6 6 5 6 6 8 8 9 10 10 10 14 16 19 20 13 11 17 19 19 15 9 8 8 7 7 8 9 10 9 8 8 7 8 9 10 12
8 7 6 6 6 6 5 4 4 6 7 9 9 10 10 10 10 11 11 12 14 13 12 14 17 14 10 9 9 10 9 9 10 10 10 8 7 7 8 7 8 7 9
8 6 6 5 5 5 5 4 5 4 6 8 8 8 9 10 12 17 13 11 11 12 12 8 7 8 8 7 8 9 9 9 10 9 9 8 7 8 8 7 7 8 10
7 6 4 4 4 5 5 6 7 7 12 12 11 10 8 10 16 18 19 19 18 18 10 8 8 8 8 8 8 8 8 9 9 9 8 7 7 8 8 8 7 8 9
7 6 5 5 4 5 5 6 7 9 10 11 13 14 14 15 16 18 19 19 16 15 8 8 8 9 8 8 7 8 8 8 8 8 8 7 7 7 7 7 7 8 9
8 7 6 4 4 4 5 6 6 7 9 9 10 14 16 16 16 17 17 13 11 11 9 9 9 9 8 8 7 7 7 7 8 8 8 7 6 6 7 7 7 8 9
7 5 4 4 4 4 5 6 7 8 8 8 8 11 14 15 13 15 14 10 9 10 9 9 9 9 8 8 7 7 7 7 8 7 7 7 5 6 7 7 8 10 10
5 7 6 4 5 5 6 7 7 8 8 8 8 9 10 9 9 10 10 10 10 10 10 10 9 9 9 8 7 7 7 7 7 7 7 6 5 5 6 8 8 8 9
5 5 7 5 5 5 6 7 7 7 8 8 8 11 14 9 9 10 10 10 10 10 10 9 9 9 9 8 7 7 8 7 7 6 6 5 5 5 6 7 8 9 9
4 4 4 4 5 6 6 7 7 8 9 9 8 10 14 10 9 9 10 10 10 9 9 9 8 8 8 7 7 7 7 7 6 6 5 5 5 5 6 7 7 8 8
4 4 4 4 4 6 7 7 7 8 8 8 9 9 9 9 9 10 10 10 10 10 10 9 9 9 8 8 8 6 6 5 5 5 6 5 5 5 6 7 8 8 8
3 3 3 4 5 5 6 7 7 8 8 8 8 8 9 9 10 11 10 10 9 10 12 11 10 12 14 11 9 9 8 8 8 8 8 7 6 6 6 7 8 9 9
3 3 3 4 4 5 6 6 7 8 8 8 8 8 9 9 9 10 10 10 10 10 13 14 13 13 14 14 13 10 10 11 11 10 9 7 8 8 7 8 7 8 8
4 4 4 4 4 5 5 6 7 7 7 7 8 8 8 9 9 10 10 10 10 10 12 13 16 16 17 15 14 12 10 10 10 10 8 7 7 7 7 7 8 8 8
Wind_Direction
120 106 97 6 354 353 333 311 305 301 302 298 296 290 273 262 252 253 273 286 300 306 309 309 305 300 293 287 281 273 266 262 273 282 281 286 288 288 291 289 283 277 274
163 167 266 305 327 329 314 304 300 296 294 289 288 281 269 260 248 253 273 285 293 301 307 308 306 303 295 291 285 278 273 268 273 286 291 291 288 287 286 285 284 276 265
202 227 275 295 306 307 304 303 301 295 294 294 286 276 270 265 259 259 267 281 291 296 301 303 302 299 294 290 285 281 279 278 276 285 291 289 286 283 282 281 274 268 253
220 238 258 271 278 285 291 295 293 291 289 287 282 275 272 274 271 271 277 288 295 299 301 299 297 292 288 286 283 279 280 282 283 285 286 286 284 281 271 270 266 237 238
222 235 251 266 275 281 284 287 290 290 286 282 284 285 287 286 283 285 290 298 303 308 307 303 297 292 287 287 287 288 289 286 284 282 282 282 280 276 267 254 253 217 219
231 247 263 273 280 279 279 284 289 291 291 293 293 297 303 305 313 316 319 312 311 310 308 305 301 295 295 297 296 294 290 286 284 279 276 274 273 269 264 247 223 198 219
246 264 271 272 278 282 288 292 291 294 297 306 318 328 330 330 336 332 326 324 314 307 302 300 299 297 299 293 292 294 291 285 279 273 269 265 266 260 245 228 200 177 154
263 277 284 288 290 295 299 299 301 310 328 344 3 9 358 346 343 334 329 322 311 304 299 295 292 292 292 292 294 292 289 286 284 278 266 263 260 251 224 177 133 114 101
288 298 305 307 308 318 332 345 1 24 29 27 22 12 355 338 333 329 329 318 311 308 304 300 296 292 291 294 298 293 292 293 307 344 23 68 84 94 107 110 115 115 84
313 318 333 352 8 24 36 43 43 47 36 24 12 358 342 327 321 323 325 320 314 312 308 305 302 297 298 301 300 292 291 300 332 29 61 66 70 73 72 74 89 95 83
346 27 42 51 63 64 61 55 48 41 29 16 359 341 328 319 317 320 325 327 316 310 308 308 306 303 305 305 301 289 276 288 43 74 74 71 67 63 59 57 58 70 77
63 66 61 55 62 64 60 50 40 29 17 3 352 344 334 327 323 324 325 325 323 316 311 310 309 309 313 315 317 325 56 102 91 83 77 71 68 66 64 66 68 68 70
82 72 65 62 55 51 49 36 21 10 3 352 347 345 341 337 333 328 326 325 327 327 317 317 320 321 325 334 20 54 78 87 86 82 79 76 74 73 71 72 72 73 71
90 77 65 58 47 34 28 18 8 358 352 350 349 345 341 339 341 340 335 329 329 331 327 323 324 331 349 10 40 62 71 78 86 87 87 85 78 69 63 63 72 74 79
90 78 63 51 40 23 11 354 352 334 336 343 344 341 341 343 336 332 337 337 337 334 331 332 344 354 12 32 57 71 76 81 86 90 93 89 78 70 66 63 69 75 79
88 71 58 48 36 24 11 3 356 354 344 346 344 346 340 332 332 339 343 341 339 340 345 352 359 7 18 35 58 71 75 81 88 93 95 90 77 72 74 70 71 77 82
87 76 60 50 36 22 12 8 360 350 347 350 349 351 353 348 346 347 347 342 344 349 359 5 9 15 23 37 56 70 78 83 89 94 97 90 76 72 75 77 78 77 79
81 74 67 49 33 17 6 2 0 358 357 357 354 353 353 350 349 351 349 351 2 5 7 10 14 18 25 38 52 67 78 84 88 93 96 89 76 71 74 78 80 82 82
82 73 58 43 27 13 3 4 4 3 1 358 0 1 353 348 349 355 359 8 5 6 7 11 15 20 26 35 47 61 72 81 90 94 96 93 79 73 75 79 82 78 80
77 77 64 43 26 17 13 12 10 7 5 3 7 7 357 356 6 5 6 6 7 7 8 11 15 20 23 31 42 55 69 78 84 90 92 89 81 78 81 82 85 84 85
76 62 53 43 30 22 18 14 10 9 8 6 7 4 3 6 7 6 8 7 9 9 8 10 13 16 18 23 34 48 61 74 82 88 88 83 79 79 81 87 91 94 98
81 64 48 39 28 24 19 13 13 12 9 9 6 5 3 10 10 9 7 6 8 9 8 10 12 13 15 17 24 38 54 66 75 84 85 79 77 79 88 95 97 100 102
81 65 48 34 27 21 22 19 18 17 13 11 8 9 9 9 9 9 6 5 6 8 9 10 12 12 13 15 21 29 42 50 63 87 92 85 79 81 91 99 104 107 106
78 63 45 31 29 29 28 26 22 18 15 12 10 9 8 6 7 6 5 2 4 8 9 10 12 13 16 19 18 25 30 41 61 77 89 92 88 89 94 98 102 107 105
73 57 44 36 36 34 34 32 27 22 18 14 10 8 5 5 4 4 3 1 1 7 9 10 11 11 13 19 21 23 35 53 64 73 81 83 85 89 96 101 106 111 112
76 69 60 54 50 45 42 37 31 26 21 16 13 10 8 6 5 3 2 3 2 4 6 7 7 14 17 17 17 26 41 54 63 69 78 86 88 91 98 102 110 113 118
Height
1522 1521 1519 1517 1515 1514 1512 1511 1510 1508 1507 1505 1504 1501 1499 1497 1495 1492 1489 1486 1482 1478 1473 1468 1463 1459 1454 1451 1448 1445 1442 1439 1434 1429 1429 1427 1425 1422 1420 1418 1416 1413 1412
1520 1519 1517 1515 1513 1512 1511 1509 1508 1507 1505 1503 1501 1499 1497 1494 1491 1488 1485 1481 1477 1472 1467 1462 1456 1452 1447 1444 1441 1438 1436 1433 1430 1425 1422 1420 1418 1416 1413 1411 1409 1407 1406
1518 1517 1515 1513 1512 1510 1509 1507 1506 1505 1503 1501 1499 1496 1494 1491 1488 1484 1480 1476 1471 1466 1461 1455 1449 1444 1440 1437 1434 1432 1430 1427 1424 1420 1416 1414 1411 1409 1406 1404 1402 1401 1400
1517 1516 1514 1512 1510 1509 1507 1506 1504 1502 1500 1498 1496 1493 1490 1487 1484 1480 1475 1470 1465 1460 1454 1448 1442 1437 1433 1430 1428 1426 1424 1421 1419 1415 1411 1407 1405 1402 1400 1398 1397 1396 1395
1515 1514 1513 1511 1509 1507 1505 1504 1502 1500 1498 1496 1493 1490 1487 1483 1479 1475 1470 1464 1459 1453 1447 1441 1435 1431 1428 1426 1423 1421 1418 1415 1412 1409 1405 1401 1398 1396 1395 1393 1392 1392 1391
1514 1513 1511 1509 1508 1506 1504 1502 1500 1498 1495 1492 1489 1486 1482 1478 1474 1470 1464 1458 1452 1446 1440 1434 1429 1426 1423 1421 1418 1416 1413 1409 1405 1402 1398 1395 1392 1390 1390 1389 1389 1388 1388
1513 1512 1510 1508 1506 1504 1502 1500 1497 1494 1491 1488 1484 1481 1477 1473 1469 1464 1459 1453 1447 1441 1435 1430 1425 1422 1419 1416 1413 1409 1406 1402 1398 1394 1390 1387 1386 1385 1385 1385 1385 1385 1385
1512 1511 1509 1507 1504 1502 1499 1496 1493 1490 1487 1483 1479 1476 1472 1468 1463 1458 1453 1447 1442 1437 1432 1427 1423 1418 1415 1411 1407 1403 1398 1394 1390 1386 1382 1381 1381 1381 1382 1383 1383 1383 1383
1511 1509 1507 1504 1502 1499 1496 1493 1490 1486 1483 1479 1475 1471 1467 1463 1459 1453 1448 1442 1437 1433 1429 1424 1420 1415 1411 1407 1402 1397 1392 1389 1386 1382 1379 1378 1378 1379 1381 1381 1382 1382 1382
1509 1507 1505 1502 1499 1496 1493 1490 1486 1483 1480 1476 1472 1468 1464 1459 1454 1450 1445 1440 1435 1430 1425 1421 1416 1411 1406 1401 1396 1392 1389 1386 1384 1382 1380 1379 1379 1381 1382 1382 1382 1382 1382
1507 1505 1503 1500 1497 1494 1491 1488 1485 1482 1478 1474 1470 1466 1461 1456 1452 1447 1443 1438 1433 1428 1423 1417 1412 1407 1401 1396 1392 1388 1386 1385 1384 1384 1383 1383 1383 1384 1384 1384 1383 1383 1383
1505 1503 1501 1499 1496 1493 1490 1487 1484 1480 1476 1472 1468 1463 1459 1454 1450 1445 1441 1437 1432 1427 1421 1415 1409 1404 1398 1393 1388 1386 1386 1386 1386 1387 1387 1387 1387 1387 1387 1387 1386 1385 1385
1505 1503 1500 1498 1495 1493 1490 1486 1483 1479 1475 1471 1466 1462 1457 1453 1449 1445 1440 1436 1431 1426 1420 1414 1408 1402 1397 1392 1389 1388 1388 1389 1390 1390 1391 1392 1392 1392 1392 1391 1391 1391 1390
1505 1503 1500 1498 1495 1492 1490 1487 1483 1479 1475 1471 1466 1462 1458 1453 1449 1445 1440 1436 1431 1425 1420 1414 1408 1403 1398 1395 1393 1393 1393 1394 1394 1395 1396 1397 1398 1398 1398 1398 1397 1397 1396
1505 1503 1500 1498 1496 1493 1490 1487 1484 1480 1477 1473 1469 1464 1459 1455 1451 1447 1442 1437 1432 1427 1421 1415 1410 1406 1402 1400 1399 1399 1399 1400 1400 1401 1402 1403 1404 1405 1405 1405 1405 1405 1404
1505 1503 1501 1499 1497 1494 1492 1489 1486 1483 1479 1475 1471 1467 1462 1458 1454 1449 1445 1440 1435 1429 1424 1418 1414 1410 1408 1406 1406 1406 1406 1406 1407 1407 1408 1410 1411 1412 1412 1413 1413 1413 1413
1506 1504 1503 1501 1499 1496 1493 1491 1488 1485 1481 1477 1473 1469 1464 1460 1456 1452 1447 1442 1438 1432 1427 1423 1419 1416 1414 1412 1412 1412 1412 1413 1413 1414 1415 1416 1417 1418 1419 1420 1421 1421 1422
1508 1507 1505 1503 1501 1498 1496 1493 1490 1486 1482 1479 1475 1471 1467 1463 1458 1454 1450 1445 1441 1436 1431 1428 1424 1422 1420 1419 1418 1418 1419 1419 1419 1420 1421 1423 1424 1425 1426 1427 1428 1429 1429
1511 1509 1507 1505 1503 1501 1498 1495 1492 1488 1485 1481 1477 1473 1469 1466 1462 1458 1453 1449 1445 1441 1437 1433 1430 1428 1426 1425 1424 1424 1424 1425 1425 1426 1427 1429 1430 1432 1433 1434 1435 1436 1437
1514 1512 1511 1508 1506 1503 1500 1497 1494 1491 1487 1484 1480 1476 1473 1468 1465 1461 1457 1453 1450 1446 1443 1439 1436 1434 1432 1431 1430 1430 1430 1430 1431 1432 1433 1435 1436 1438 1439 1441 1442 1443 1444
1518 1516 1514 1512 1509 1506 1503 1500 1496 1493 1490 1487 1484 1480 1477 1473 1469 1466 1462 1458 1455 1451 1448 1445 1442 1440 1438 1437 1436 1436 1436 1436 1437 1438 1439 1440 1442 1444 1445 1447 1448 1449 1450
1521 1520 1518 1515 1513 1510 1506 1503 1500 1496 1493 1490 1487 1484 1481 1477 1474 1470 1467 1463 1460 1456 1453 1450 1447 1445 1443 1442 1441 1441 1441 1441 1442 1443 1444 1446 1447 1449 1451 1452 1453 1455 1456
1525 1523 1521 1519 1516 1513 1510 1506 1503 1499 1496 1493 1490 1487 1484 1481 1478 1474 1471 1468 1464 1461 1458 1455 1452 1450 1448 1447 1446 1446 1446 1447 1447 1448 1449 1451 1452 1454 1456 1457 1458 1460 1462
1529 1527 1525 1523 1520 1517 1513 1510 1506 1503 1499 1496 1494 1491 1488 1485 1482 1479 1475 1472 1469 1466 1463 1460 1457 1455 1453 1452 1451 1451 1451 1452 1452 1453 1454 1456 1457 1459 1460 1462 1463 1465 1467
1532 1530 1528 1526 1523 1520 1517 1514 1510 1507 1503 1500 1497 1494 1492 1489 1486 1483 1480 1476 1473 1470 1467 1465 1462 1460 1458 1457 1457 1457 1457 1457 1457 1458 1459 1460 1462 1463 1465 1466 1468 1470 1472
1535 1533 1531 1529 1526 1524 1521 1517 1514 1511 1508 1505 1502 1499 1496 1493 1490 1487 1484 1481 1478 1475 1472 1469 1467 1465 1464 1463 1462 1462 1462 1462 1463 1463 1464 1465 1466 1468 1470 1471 1473 1475 1476